owner,sensor,date,latitude,longitude,vertical_datum,direction_of_sea_water_velocity,sea_water_speed,upward_sea_water_velocity,qcFlag 
TABS,ioos:station:wmo:42051:1,2017-04-01T00:00:00Z,29.6350,-93.6417,2.0,13.53603518,6.665133157,-99999.0,'11133222,11111222,99999999' 
TABS,ioos:station:wmo:42051:1,2017-04-01T00:30:00Z,29.6350,-93.6417,2.0,19.77251475,4.877560866,-99999.0,'11133222,11111222,99999999' 
TABS,ioos:station:wmo:42051:1,2017-04-01T01:00:00Z,29.6350,-93.6417,2.0,43.33638412,3.409692068,-99999.0,'11133222,11111222,99999999' 
TABS,ioos:station:wmo:42051:1,2017-04-01T01:30:00Z,29.6350,-93.6417,2.0,355.9890937,3.288054136,-99999.0,'11133222,11111222,99999999' 
TABS,ioos:station:wmo:42051:1,2017-04-01T02:00:00Z,29.6350,-93.6417,2.0,317.6153668,5.889261414,-99999.0,'11133222,11111222,99999999' 
TABS,ioos:station:wmo:42051:1,2017-04-01T02:30:00Z,29.6350,-93.6417,2.0,284.4815962,6.558361076,-99999.0,'11133222,11111222,99999999' 
TABS,ioos:station:wmo:42051:1,2017-04-01T03:00:00Z,29.6350,-93.6417,2.0,288.615501,10.05609268,-99999.0,'11111222,11111222,99999999' 
TABS,ioos:station:wmo:42051:1,2017-04-01T03:30:00Z,29.6350,-93.6417,2.0,285.2477529,12.96642588,-99999.0,'11111222,11111222,99999999' 
TABS,ioos:station:wmo:42051:1,2017-04-01T04:00:00Z,29.6350,-93.6417,2.0,292.8600378,17.0924574,-99999.0,'11111222,11111222,99999999' 
TABS,ioos:station:wmo:42051:1,2017-04-01T04:30:00Z,29.6350,-93.6417,2.0,303.2575356,19.45666467,-99999.0,'11111222,11111222,99999999' 
TABS,ioos:station:wmo:42051:1,2017-04-01T05:00:00Z,29.6350,-93.6417,2.0,299.2743755,24.60188001,-99999.0,'11111222,11111222,99999999' 
TABS,ioos:station:wmo:42051:1,2017-04-01T05:30:00Z,29.6350,-93.6417,2.0,312.8297995,26.69829395,-99999.0,'11111222,11111222,99999999' 
TABS,ioos:station:wmo:42051:1,2017-04-01T06:00:00Z,29.6350,-93.6417,2.0,317.2239592,25.14951292,-99999.0,'11111222,11111222,99999999' 
TABS,ioos:station:wmo:42051:1,2017-04-01T06:30:00Z,29.6350,-93.6417,2.0,318.9548315,26.86330583,-99999.0,'11111222,11111222,99999999' 
TABS,ioos:station:wmo:42051:1,2017-04-01T07:00:00Z,29.6350,-93.6417,2.0,325.6653108,29.07645267,-99999.0,'11111222,11111222,99999999' 
TABS,ioos:station:wmo:42051:1,2017-04-01T07:30:00Z,29.6350,-93.6417,2.0,331.5588262,28.40882433,-99999.0,'11111222,11111222,99999999' 
TABS,ioos:station:wmo:42051:1,2017-04-01T08:00:00Z,29.6350,-93.6417,2.0,327.5666888,33.89755891,-99999.0,'11111222,11111222,99999999' 
TABS,ioos:station:wmo:42051:1,2017-04-01T08:30:00Z,29.6350,-93.6417,2.0,331.1519742,34.79848416,-99999.0,'11111222,11111222,99999999' 
TABS,ioos:station:wmo:42051:1,2017-04-01T09:00:00Z,29.6350,-93.6417,2.0,327.2293005,35.61910864,-99999.0,'11111222,11111222,99999999' 
TABS,ioos:station:wmo:42051:1,2017-04-01T09:30:00Z,29.6350,-93.6417,2.0,329.6843926,42.31655114,-99999.0,'11111222,11111222,99999999' 
TABS,ioos:station:wmo:42051:1,2017-04-01T10:00:00Z,29.6350,-93.6417,2.0,333.328724,40.9022261,-99999.0,'11111222,11111222,99999999' 
TABS,ioos:station:wmo:42051:1,2017-04-01T10:30:00Z,29.6350,-93.6417,2.0,329.8665202,35.63600006,-99999.0,'11111222,11111222,99999999' 
TABS,ioos:station:wmo:42051:1,2017-04-01T11:00:00Z,29.6350,-93.6417,2.0,330.933638,36.98850903,-99999.0,'11111222,11111222,99999999' 
TABS,ioos:station:wmo:42051:1,2017-04-01T11:30:00Z,29.6350,-93.6417,2.0,325.4642559,33.24958045,-99999.0,'11111222,11111222,99999999' 
TABS,ioos:station:wmo:42051:1,2017-04-01T12:00:00Z,29.6350,-93.6417,2.0,328.4268902,31.91426327,-99999.0,'11111222,11111222,99999999' 
TABS,ioos:station:wmo:42051:1,2017-04-01T12:30:00Z,29.6350,-93.6417,2.0,321.3335304,25.70463966,-99999.0,'11111222,11111222,99999999' 
TABS,ioos:station:wmo:42051:1,2017-04-01T13:00:00Z,29.6350,-93.6417,2.0,304.6084128,21.63885857,-99999.0,'11111222,11111222,99999999' 
TABS,ioos:station:wmo:42051:1,2017-04-01T13:30:00Z,29.6350,-93.6417,2.0,286.071626,20.01210883,-99999.0,'11111222,11111222,99999999' 
TABS,ioos:station:wmo:42051:1,2017-04-01T14:00:00Z,29.6350,-93.6417,2.0,232.9889924,17.0940516,-99999.0,'11111222,11111222,99999999' 
TABS,ioos:station:wmo:42051:1,2017-04-01T14:30:00Z,29.6350,-93.6417,2.0,239.425816,24.94847691,-99999.0,'11111222,11111222,99999999' 
TABS,ioos:station:wmo:42051:1,2017-04-01T15:00:00Z,29.6350,-93.6417,2.0,238.2910381,31.9254444,-99999.0,'11111222,11111222,99999999' 
TABS,ioos:station:wmo:42051:1,2017-04-01T15:30:00Z,29.6350,-93.6417,2.0,245.5294389,23.4899404,-99999.0,'11111222,11111222,99999999' 
TABS,ioos:station:wmo:42051:1,2017-04-01T16:00:00Z,29.6350,-93.6417,2.0,252.2579317,21.95413856,-99999.0,'11111222,11111222,99999999' 
TABS,ioos:station:wmo:42051:1,2017-04-01T16:30:00Z,29.6350,-93.6417,2.0,251.9801722,20.49526043,-99999.0,'11111222,11111222,99999999' 
TABS,ioos:station:wmo:42051:1,2017-04-01T17:00:00Z,29.6350,-93.6417,2.0,253.5674107,24.25050927,-99999.0,'11111222,11111222,99999999' 
TABS,ioos:station:wmo:42051:1,2017-04-01T17:30:00Z,29.6350,-93.6417,2.0,257.742355,22.65647148,-99999.0,'11111222,11111222,99999999' 
TABS,ioos:station:wmo:42051:1,2017-04-01T18:00:00Z,29.6350,-93.6417,2.0,265.4256685,23.57508006,-99999.0,'11111222,11111222,99999999' 
TABS,ioos:station:wmo:42051:1,2017-04-01T18:30:00Z,29.6350,-93.6417,2.0,277.227097,37.04427216,-99999.0,'11111222,11111222,99999999' 
TABS,ioos:station:wmo:42051:1,2017-04-01T19:00:00Z,29.6350,-93.6417,2.0,268.6047466,35.74059037,-99999.0,'11111222,11111222,99999999' 
TABS,ioos:station:wmo:42051:1,2017-04-01T19:30:00Z,29.6350,-93.6417,2.0,266.6652235,32.49501039,-99999.0,'11111222,11111222,99999999' 
TABS,ioos:station:wmo:42051:1,2017-04-01T20:00:00Z,29.6350,-93.6417,2.0,266.7725315,34.99549257,-99999.0,'11111222,11111222,99999999' 
TABS,ioos:station:wmo:42051:1,2017-04-01T20:30:00Z,29.6350,-93.6417,2.0,266.268862,37.03848944,-99999.0,'11111222,11111222,99999999' 
TABS,ioos:station:wmo:42051:1,2017-04-01T21:00:00Z,29.6350,-93.6417,2.0,276.1655713,36.8732586,-99999.0,'11111222,11111222,99999999' 
TABS,ioos:station:wmo:42051:1,2017-04-01T21:30:00Z,29.6350,-93.6417,2.0,272.5829948,39.0596723,-99999.0,'11111222,11111222,99999999' 
TABS,ioos:station:wmo:42051:1,2017-04-01T22:00:00Z,29.6350,-93.6417,2.0,272.6468224,43.31619674,-99999.0,'11111222,11111222,99999999' 
TABS,ioos:station:wmo:42051:1,2017-04-01T22:30:00Z,29.6350,-93.6417,2.0,268.9634072,42.02687236,-99999.0,'11111222,11111222,99999999' 
TABS,ioos:station:wmo:42051:1,2017-04-01T23:00:00Z,29.6350,-93.6417,2.0,262.8189436,38.32054932,-99999.0,'11111222,11111222,99999999' 
TABS,ioos:station:wmo:42051:1,2017-04-01T23:30:00Z,29.6350,-93.6417,2.0,267.482207,50.08833796,-99999.0,'11111222,11111222,99999999' 
TABS,ioos:station:wmo:42051:1,2017-04-02T00:00:00Z,29.6350,-93.6417,2.0,267.7235983,50.10953003,-99999.0,'11111222,11111222,99999999' 
TABS,ioos:station:wmo:42051:1,2017-04-02T00:30:00Z,29.6350,-93.6417,2.0,267.7708337,42.94248479,-99999.0,'11111222,11111222,99999999' 
TABS,ioos:station:wmo:42051:1,2017-04-02T01:00:00Z,29.6350,-93.6417,2.0,261.3113152,48.92138285,-99999.0,'11111222,11111222,99999999' 
TABS,ioos:station:wmo:42051:1,2017-04-02T01:30:00Z,29.6350,-93.6417,2.0,262.0397711,55.6764196,-99999.0,'11111222,11111222,99999999' 
TABS,ioos:station:wmo:42051:1,2017-04-02T02:00:00Z,29.6350,-93.6417,2.0,257.6262185,55.58104173,-99999.0,'11111222,11111222,99999999' 
TABS,ioos:station:wmo:42051:1,2017-04-02T02:30:00Z,29.6350,-93.6417,2.0,259.3954502,52.22184409,-99999.0,'11111222,11111222,99999999' 
TABS,ioos:station:wmo:42051:1,2017-04-02T03:00:00Z,29.6350,-93.6417,2.0,265.3248165,47.11674012,-99999.0,'11111222,11111222,99999999' 
TABS,ioos:station:wmo:42051:1,2017-04-02T03:30:00Z,29.6350,-93.6417,2.0,254.4970076,58.47751192,-99999.0,'11111222,11111222,99999999' 
TABS,ioos:station:wmo:42051:1,2017-04-02T04:00:00Z,29.6350,-93.6417,2.0,253.6221308,59.01452364,-99999.0,'11111222,11111222,99999999' 
TABS,ioos:station:wmo:42051:1,2017-04-02T04:30:00Z,29.6350,-93.6417,2.0,257.3113142,52.99414685,-99999.0,'11111222,11111222,99999999' 
TABS,ioos:station:wmo:42051:1,2017-04-02T05:00:00Z,29.6350,-93.6417,2.0,266.346708,55.56288419,-99999.0,'11111222,11111222,99999999' 
TABS,ioos:station:wmo:42051:1,2017-04-02T05:30:00Z,29.6350,-93.6417,2.0,265.7655262,54.44860329,-99999.0,'11111222,11111222,99999999' 
TABS,ioos:station:wmo:42051:1,2017-04-02T06:00:00Z,29.6350,-93.6417,2.0,267.5440933,50.41629201,-99999.0,'11111222,11111222,99999999' 
TABS,ioos:station:wmo:42051:1,2017-04-02T06:30:00Z,29.6350,-93.6417,2.0,251.7859543,44.215296,-99999.0,'11111222,11111222,99999999' 
TABS,ioos:station:wmo:42051:1,2017-04-02T07:00:00Z,29.6350,-93.6417,2.0,263.1242826,48.95201324,-99999.0,'11111222,11111222,99999999' 
TABS,ioos:station:wmo:42051:1,2017-04-02T07:30:00Z,29.6350,-93.6417,2.0,266.5641879,51.73296435,-99999.0,'11111222,11111222,99999999' 
TABS,ioos:station:wmo:42051:1,2017-04-02T08:00:00Z,29.6350,-93.6417,2.0,256.1103041,44.44965017,-99999.0,'11111222,11111222,99999999' 
TABS,ioos:station:wmo:42051:1,2017-04-02T08:30:00Z,29.6350,-93.6417,2.0,256.8642428,41.49569857,-99999.0,'11111222,11111222,99999999' 
TABS,ioos:station:wmo:42051:1,2017-04-02T09:00:00Z,29.6350,-93.6417,2.0,267.7538418,41.3417525,-99999.0,'11111222,11111222,99999999' 
TABS,ioos:station:wmo:42051:1,2017-04-02T09:30:00Z,29.6350,-93.6417,2.0,269.6729394,47.36076963,-99999.0,'11111222,11111222,99999999' 
TABS,ioos:station:wmo:42051:1,2017-04-02T10:00:00Z,29.6350,-93.6417,2.0,264.3587407,46.59563606,-99999.0,'11111222,11111222,99999999' 
TABS,ioos:station:wmo:42051:1,2017-04-02T10:30:00Z,29.6350,-93.6417,2.0,265.8219251,40.35723107,-99999.0,'11111222,11111222,99999999' 
TABS,ioos:station:wmo:42051:1,2017-04-02T11:00:00Z,29.6350,-93.6417,2.0,267.4843895,52.41049132,-99999.0,'11111222,11111222,99999999' 
TABS,ioos:station:wmo:42051:1,2017-04-02T11:30:00Z,29.6350,-93.6417,2.0,257.4461134,52.86378817,-99999.0,'11111222,11111222,99999999' 
TABS,ioos:station:wmo:42051:1,2017-04-02T12:00:00Z,29.6350,-93.6417,2.0,253.7203927,54.22400299,-99999.0,'11111222,11111222,99999999' 
TABS,ioos:station:wmo:42051:1,2017-04-02T12:30:00Z,29.6350,-93.6417,2.0,255.5978556,47.5233974,-99999.0,'11111222,11111222,99999999' 
TABS,ioos:station:wmo:42051:1,2017-04-02T13:00:00Z,29.6350,-93.6417,2.0,260.5327223,41.34305746,-99999.0,'11111222,11111222,99999999' 
TABS,ioos:station:wmo:42051:1,2017-04-02T15:00:00Z,29.6350,-93.6417,2.0,251.1529619,48.84896417,-99999.0,'11111222,11111222,99999999' 
TABS,ioos:station:wmo:42051:1,2017-04-02T15:30:00Z,29.6350,-93.6417,2.0,244.7035251,37.56173718,-99999.0,'11111222,11111222,99999999' 
TABS,ioos:station:wmo:42051:1,2017-04-02T16:00:00Z,29.6350,-93.6417,2.0,241.971326,32.04883305,-99999.0,'11111222,11111222,99999999' 
TABS,ioos:station:wmo:42051:1,2017-04-02T16:30:00Z,29.6350,-93.6417,2.0,247.1722592,26.54940489,-99999.0,'11111222,11111222,99999999' 
TABS,ioos:station:wmo:42051:1,2017-04-02T17:00:00Z,29.6350,-93.6417,2.0,264.531829,22.7736207,-99999.0,'11111222,11111222,99999999' 
TABS,ioos:station:wmo:42051:1,2017-04-02T17:30:00Z,29.6350,-93.6417,2.0,285.8631593,25.71941873,-99999.0,'11111222,11111222,99999999' 
TABS,ioos:station:wmo:42051:1,2017-04-02T18:00:00Z,29.6350,-93.6417,2.0,290.1551752,24.23396377,-99999.0,'11111222,11111222,99999999' 
TABS,ioos:station:wmo:42051:1,2017-04-02T18:30:00Z,29.6350,-93.6417,2.0,298.7676057,24.78946954,-99999.0,'11111222,11111222,99999999' 
TABS,ioos:station:wmo:42051:1,2017-04-02T19:00:00Z,29.6350,-93.6417,2.0,300.5716753,25.54016836,-99999.0,'11111222,11111222,99999999' 
TABS,ioos:station:wmo:42051:1,2017-04-02T19:30:00Z,29.6350,-93.6417,2.0,299.9677013,29.38901155,-99999.0,'11111222,11111222,99999999' 
TABS,ioos:station:wmo:42051:1,2017-04-02T20:00:00Z,29.6350,-93.6417,2.0,297.2187047,32.55479381,-99999.0,'11111222,11111222,99999999' 
TABS,ioos:station:wmo:42051:1,2017-04-02T20:30:00Z,29.6350,-93.6417,2.0,295.3709963,34.541339,-99999.0,'11111222,11111222,99999999' 
TABS,ioos:station:wmo:42051:1,2017-04-02T21:00:00Z,29.6350,-93.6417,2.0,271.6739559,43.82869494,-99999.0,'11111222,11111222,99999999' 
TABS,ioos:station:wmo:42051:1,2017-04-02T21:30:00Z,29.6350,-93.6417,2.0,263.7626675,60.65903148,-99999.0,'11111222,11111222,99999999' 
TABS,ioos:station:wmo:42051:1,2017-04-02T22:00:00Z,29.6350,-93.6417,2.0,258.5367491,57.31318347,-99999.0,'11111222,11111222,99999999' 
TABS,ioos:station:wmo:42051:1,2017-04-02T22:30:00Z,29.6350,-93.6417,2.0,260.5273294,47.33540113,-99999.0,'11111222,11111222,99999999' 
TABS,ioos:station:wmo:42051:1,2017-04-02T23:00:00Z,29.6350,-93.6417,2.0,255.7032787,49.68878546,-99999.0,'11111222,11111222,99999999' 
TABS,ioos:station:wmo:42051:1,2017-04-02T23:30:00Z,29.6350,-93.6417,2.0,242.7220836,49.98892877,-99999.0,'11111222,11111222,99999999' 
TABS,ioos:station:wmo:42051:1,2017-04-03T00:00:00Z,29.6350,-93.6417,2.0,238.2471894,42.98333282,-99999.0,'11111222,11111222,99999999' 
TABS,ioos:station:wmo:42051:1,2017-04-03T00:30:00Z,29.6350,-93.6417,2.0,243.0598739,34.874462,-99999.0,'11111222,11111222,99999999' 
TABS,ioos:station:wmo:42051:1,2017-04-03T01:00:00Z,29.6350,-93.6417,2.0,236.8769624,29.40887281,-99999.0,'11111222,11111222,99999999' 
TABS,ioos:station:wmo:42051:1,2017-04-03T01:30:00Z,29.6350,-93.6417,2.0,248.8420154,23.63308063,-99999.0,'11111222,11111222,99999999' 
TABS,ioos:station:wmo:42051:1,2017-04-03T02:00:00Z,29.6350,-93.6417,2.0,255.8478426,26.46311584,-99999.0,'11111222,11111222,99999999' 
TABS,ioos:station:wmo:42051:1,2017-04-03T02:30:00Z,29.6350,-93.6417,2.0,248.8616224,27.42532589,-99999.0,'11111222,11111222,99999999' 
TABS,ioos:station:wmo:42051:1,2017-04-03T03:00:00Z,29.6350,-93.6417,2.0,255.7600864,55.3712317,-99999.0,'11111222,11111222,99999999' 
TABS,ioos:station:wmo:42051:1,2017-04-03T03:30:00Z,29.6350,-93.6417,2.0,251.7109598,55.73532542,-99999.0,'11111222,11111222,99999999' 
TABS,ioos:station:wmo:42051:1,2017-04-03T04:00:00Z,29.6350,-93.6417,2.0,251.6992815,45.7646086,-99999.0,'11111222,11111222,99999999' 
TABS,ioos:station:wmo:42051:1,2017-04-03T04:30:00Z,29.6350,-93.6417,2.0,245.6288499,40.18029865,-99999.0,'11111222,11111222,99999999' 
TABS,ioos:station:wmo:42051:1,2017-04-03T05:00:00Z,29.6350,-93.6417,2.0,237.3195051,45.00427091,-99999.0,'11111222,11111222,99999999' 
TABS,ioos:station:wmo:42051:1,2017-04-03T05:30:00Z,29.6350,-93.6417,2.0,232.2326507,40.49296359,-99999.0,'11111222,11111222,99999999' 
TABS,ioos:station:wmo:42051:1,2017-04-03T06:00:00Z,29.6350,-93.6417,2.0,225.6756831,48.54625938,-99999.0,'11111222,11111222,99999999' 
TABS,ioos:station:wmo:42051:1,2017-04-03T06:30:00Z,29.6350,-93.6417,2.0,219.9888167,44.36372617,-99999.0,'11111222,11111222,99999999' 
TABS,ioos:station:wmo:42051:1,2017-04-03T07:00:00Z,29.6350,-93.6417,2.0,215.6743066,46.21205579,-99999.0,'11111222,11111222,99999999' 
TABS,ioos:station:wmo:42051:1,2017-04-03T07:30:00Z,29.6350,-93.6417,2.0,217.4203776,43.69201872,-99999.0,'11111222,11111222,99999999' 
TABS,ioos:station:wmo:42051:1,2017-04-03T08:00:00Z,29.6350,-93.6417,2.0,217.9398674,46.25606987,-99999.0,'11111222,11111222,99999999' 
TABS,ioos:station:wmo:42051:1,2017-04-03T08:30:00Z,29.6350,-93.6417,2.0,232.4215935,47.89765861,-99999.0,'11111222,11111222,99999999' 
TABS,ioos:station:wmo:42051:1,2017-04-03T09:00:00Z,29.6350,-93.6417,2.0,234.1330464,44.54682929,-99999.0,'11111222,11111222,99999999' 
TABS,ioos:station:wmo:42051:1,2017-04-03T09:30:00Z,29.6350,-93.6417,2.0,223.7827878,43.61711247,-99999.0,'11111222,11111222,99999999' 
TABS,ioos:station:wmo:42051:1,2017-04-03T10:00:00Z,29.6350,-93.6417,2.0,210.9257171,41.63986551,-99999.0,'11111222,11111222,99999999' 
TABS,ioos:station:wmo:42051:1,2017-04-03T10:30:00Z,29.6350,-93.6417,2.0,204.6832906,44.13246991,-99999.0,'11111222,11111222,99999999' 
TABS,ioos:station:wmo:42051:1,2017-04-03T11:00:00Z,29.6350,-93.6417,2.0,204.5794177,44.01882552,-99999.0,'11111222,11111222,99999999' 
TABS,ioos:station:wmo:42051:1,2017-04-03T11:30:00Z,29.6350,-93.6417,2.0,220.042016,33.465285,-99999.0,'11111222,11111222,99999999' 
TABS,ioos:station:wmo:42051:1,2017-04-03T12:00:00Z,29.6350,-93.6417,2.0,218.3840983,35.41437138,-99999.0,'11111222,11111222,99999999' 
TABS,ioos:station:wmo:42051:1,2017-04-03T12:30:00Z,29.6350,-93.6417,2.0,213.3694386,34.72477502,-99999.0,'11111222,11111222,99999999' 
TABS,ioos:station:wmo:42051:1,2017-04-03T13:00:00Z,29.6350,-93.6417,2.0,210.1681161,33.72844645,-99999.0,'11111222,11111222,99999999' 
TABS,ioos:station:wmo:42051:1,2017-04-03T13:30:00Z,29.6350,-93.6417,2.0,206.4968324,30.16905037,-99999.0,'11111222,11111222,99999999' 
TABS,ioos:station:wmo:42051:1,2017-04-03T14:00:00Z,29.6350,-93.6417,2.0,211.2321962,27.42464038,-99999.0,'11111222,11111222,99999999' 
TABS,ioos:station:wmo:42051:1,2017-04-03T14:30:00Z,29.6350,-93.6417,2.0,205.6536992,28.68790686,-99999.0,'11111222,11111222,99999999' 
TABS,ioos:station:wmo:42051:1,2017-04-03T15:00:00Z,29.6350,-93.6417,2.0,200.7819367,27.87356633,-99999.0,'11111222,11111222,99999999' 
TABS,ioos:station:wmo:42051:1,2017-04-03T15:30:00Z,29.6350,-93.6417,2.0,200.1434947,24.07247598,-99999.0,'11111222,11111222,99999999' 
TABS,ioos:station:wmo:42051:1,2017-04-03T16:00:00Z,29.6350,-93.6417,2.0,181.0841848,28.00501562,-99999.0,'11111222,11111222,99999999' 
TABS,ioos:station:wmo:42051:1,2017-04-03T16:30:00Z,29.6350,-93.6417,2.0,186.4041273,29.58462438,-99999.0,'11111222,11111222,99999999' 
TABS,ioos:station:wmo:42051:1,2017-04-03T17:00:00Z,29.6350,-93.6417,2.0,190.1612016,32.87566881,-99999.0,'11111222,11111222,99999999' 
TABS,ioos:station:wmo:42051:1,2017-04-03T17:30:00Z,29.6350,-93.6417,2.0,187.8625622,33.04063105,-99999.0,'11111222,11111222,99999999' 
TABS,ioos:station:wmo:42051:1,2017-04-03T18:00:00Z,29.6350,-93.6417,2.0,189.9553165,34.18474806,-99999.0,'11111222,11111222,99999999' 
TABS,ioos:station:wmo:42051:1,2017-04-03T18:30:00Z,29.6350,-93.6417,2.0,188.1832489,34.91553379,-99999.0,'11111222,11111222,99999999' 
TABS,ioos:station:wmo:42051:1,2017-04-03T19:00:00Z,29.6350,-93.6417,2.0,186.8726396,31.00278213,-99999.0,'11111222,11111222,99999999' 
TABS,ioos:station:wmo:42051:1,2017-04-03T19:30:00Z,29.6350,-93.6417,2.0,176.8252207,24.19713206,-99999.0,'11111222,11111222,99999999' 
TABS,ioos:station:wmo:42051:1,2017-04-03T20:00:00Z,29.6350,-93.6417,2.0,170.1298404,23.56883536,-99999.0,'11111222,11111222,99999999' 
TABS,ioos:station:wmo:42051:1,2017-04-03T20:30:00Z,29.6350,-93.6417,2.0,159.98855,15.63389267,-99999.0,'11111222,11111222,99999999' 
TABS,ioos:station:wmo:42051:1,2017-04-03T21:00:00Z,29.6350,-93.6417,2.0,155.185148,11.12739412,-99999.0,'11111222,11111222,99999999' 
TABS,ioos:station:wmo:42051:1,2017-04-03T21:30:00Z,29.6350,-93.6417,2.0,118.5850995,7.231465965,-99999.0,'11133222,11111222,99999999' 
TABS,ioos:station:wmo:42051:1,2017-04-03T22:00:00Z,29.6350,-93.6417,2.0,90.15485272,7.400027027,-99999.0,'11133222,11111222,99999999' 
TABS,ioos:station:wmo:42051:1,2017-04-03T22:30:00Z,29.6350,-93.6417,2.0,95.21925232,6.265979572,-99999.0,'11133222,11111222,99999999' 
TABS,ioos:station:wmo:42051:1,2017-04-03T23:00:00Z,29.6350,-93.6417,2.0,65.95188071,12.22072011,-99999.0,'11111222,11111222,99999999' 
TABS,ioos:station:wmo:42051:1,2017-04-03T23:30:00Z,29.6350,-93.6417,2.0,64.1241006,13.0148569,-99999.0,'11111222,11111222,99999999' 
TABS,ioos:station:wmo:42051:1,2017-04-04T00:00:00Z,29.6350,-93.6417,2.0,63.61170007,15.9521848,-99999.0,'11111222,11111222,99999999' 
TABS,ioos:station:wmo:42051:1,2017-04-04T00:30:00Z,29.6350,-93.6417,2.0,51.91193908,19.56642277,-99999.0,'11111222,11111222,99999999' 
TABS,ioos:station:wmo:42051:1,2017-04-04T01:00:00Z,29.6350,-93.6417,2.0,56.36251183,18.16089205,-99999.0,'11111222,11111222,99999999' 
TABS,ioos:station:wmo:42051:1,2017-04-04T01:30:00Z,29.6350,-93.6417,2.0,45.53167523,17.52993155,-99999.0,'11111222,11111222,99999999' 
TABS,ioos:station:wmo:42051:1,2017-04-04T02:00:00Z,29.6350,-93.6417,2.0,48.47532988,22.74702838,-99999.0,'11111222,11111222,99999999' 
TABS,ioos:station:wmo:42051:1,2017-04-04T02:30:00Z,29.6350,-93.6417,2.0,62.78751207,24.5357046,-99999.0,'11111222,11111222,99999999' 
TABS,ioos:station:wmo:42051:1,2017-04-04T03:00:00Z,29.6350,-93.6417,2.0,60.64892348,28.33764457,-99999.0,'11111222,11111222,99999999' 
TABS,ioos:station:wmo:42051:1,2017-04-04T03:30:00Z,29.6350,-93.6417,2.0,63.83151427,28.43452127,-99999.0,'11111222,11111222,99999999' 
TABS,ioos:station:wmo:42051:1,2017-04-04T04:00:00Z,29.6350,-93.6417,2.0,67.77814242,32.8931011,-99999.0,'11111222,11111222,99999999' 
TABS,ioos:station:wmo:42051:1,2017-04-04T04:30:00Z,29.6350,-93.6417,2.0,71.31441003,32.52433704,-99999.0,'11111222,11111222,99999999' 
TABS,ioos:station:wmo:42051:1,2017-04-04T05:00:00Z,29.6350,-93.6417,2.0,73.24024419,33.5344748,-99999.0,'11111222,11111222,99999999' 
TABS,ioos:station:wmo:42051:1,2017-04-04T05:30:00Z,29.6350,-93.6417,2.0,85.2693095,33.22318016,-99999.0,'11111222,11111222,99999999' 
TABS,ioos:station:wmo:42051:1,2017-04-04T06:00:00Z,29.6350,-93.6417,2.0,83.73153224,36.17629196,-99999.0,'11111222,11111222,99999999' 
TABS,ioos:station:wmo:42051:1,2017-04-04T06:30:00Z,29.6350,-93.6417,2.0,86.81163784,37.21761008,-99999.0,'11111222,11111222,99999999' 
TABS,ioos:station:wmo:42051:1,2017-04-04T07:00:00Z,29.6350,-93.6417,2.0,85.74083671,37.16263177,-99999.0,'11111222,11111222,99999999' 
TABS,ioos:station:wmo:42051:1,2017-04-04T07:30:00Z,29.6350,-93.6417,2.0,82.05046303,39.0452161,-99999.0,'11111222,11111222,99999999' 
TABS,ioos:station:wmo:42051:1,2017-04-04T08:00:00Z,29.6350,-93.6417,2.0,79.9372867,40.00540214,-99999.0,'11111222,11111222,99999999' 
TABS,ioos:station:wmo:42051:1,2017-04-04T08:30:00Z,29.6350,-93.6417,2.0,85.23161827,40.05864825,-99999.0,'11111222,11111222,99999999' 
TABS,ioos:station:wmo:42051:1,2017-04-04T09:00:00Z,29.6350,-93.6417,2.0,89.00857975,40.45605641,-99999.0,'11111222,11111222,99999999' 
TABS,ioos:station:wmo:42051:1,2017-04-04T09:30:00Z,29.6350,-93.6417,2.0,89.04828079,36.72506637,-99999.0,'11111222,11111222,99999999' 
TABS,ioos:station:wmo:42051:1,2017-04-04T10:00:00Z,29.6350,-93.6417,2.0,89.47353392,31.56133235,-99999.0,'11111222,11111222,99999999' 
TABS,ioos:station:wmo:42051:1,2017-04-04T10:30:00Z,29.6350,-93.6417,2.0,88.61241586,27.66811342,-99999.0,'11111222,11111222,99999999' 
TABS,ioos:station:wmo:42051:1,2017-04-04T11:00:00Z,29.6350,-93.6417,2.0,88.37144487,30.61236515,-99999.0,'11111222,11111222,99999999' 
TABS,ioos:station:wmo:42051:1,2017-04-04T11:30:00Z,29.6350,-93.6417,2.0,84.13444555,29.06215752,-99999.0,'11111222,11111222,99999999' 
TABS,ioos:station:wmo:42051:1,2017-04-04T12:00:00Z,29.6350,-93.6417,2.0,88.35756414,27.91146718,-99999.0,'11111222,11111222,99999999' 
TABS,ioos:station:wmo:42051:1,2017-04-04T12:30:00Z,29.6350,-93.6417,2.0,87.20836637,26.28118909,-99999.0,'11111222,11111222,99999999' 
TABS,ioos:station:wmo:42051:1,2017-04-04T13:00:00Z,29.6350,-93.6417,2.0,97.81362456,20.22780512,-99999.0,'11111222,11111222,99999999' 
TABS,ioos:station:wmo:42051:1,2017-04-04T13:30:00Z,29.6350,-93.6417,2.0,86.2337107,19.94307148,-99999.0,'11111222,11111222,99999999' 
TABS,ioos:station:wmo:42051:1,2017-04-04T14:00:00Z,29.6350,-93.6417,2.0,80.20956886,16.93666142,-99999.0,'11111222,11111222,99999999' 
TABS,ioos:station:wmo:42051:1,2017-04-04T14:30:00Z,29.6350,-93.6417,2.0,73.44992154,10.67213662,-99999.0,'11111222,11111222,99999999' 
TABS,ioos:station:wmo:42051:1,2017-04-04T15:00:00Z,29.6350,-93.6417,2.0,63.9582443,11.75326338,-99999.0,'11111222,11111222,99999999' 
TABS,ioos:station:wmo:42051:1,2017-04-04T15:30:00Z,29.6350,-93.6417,2.0,61.05428735,12.27319029,-99999.0,'11111222,11111222,99999999' 
TABS,ioos:station:wmo:42051:1,2017-04-04T16:00:00Z,29.6350,-93.6417,2.0,55.29956936,13.52569407,-99999.0,'11111222,11111222,99999999' 
TABS,ioos:station:wmo:42051:1,2017-04-04T16:30:00Z,29.6350,-93.6417,2.0,56.63731787,9.710185374,-99999.0,'11133222,11111222,99999999' 
TABS,ioos:station:wmo:42051:1,2017-04-04T17:00:00Z,29.6350,-93.6417,2.0,16.40667723,11.43563728,-99999.0,'11111222,11111222,99999999' 
TABS,ioos:station:wmo:42051:1,2017-04-04T17:30:00Z,29.6350,-93.6417,2.0,23.63718051,12.86972028,-99999.0,'11111222,11111222,99999999' 